Regional Weather Roundup
Issued by NWS Kansas City/Pleasant Hill, MO

Home | Current Version | Previous Version | Graphics & Text | Print | Product List | Glossary Off
Versions: 1 2 3 4 5 6 7 8 9 10 11 12 13 14 15 16 17 18 19 20 21 22 23 24 25 26 27 28 29 30 31 32 33 34 35 36 37 38 39 40 41 42 43 44 45 46 47 48 49 50

000
ASUS43 KEAX 181704
RWREAX

WEATHER ROUNDUP FOR EASTERN KANSAS AND NORTHWEST MISSOURI
NATIONAL WEATHER SERVICE KANSAS CITY/PLEASANT HILL MO
1200 PM CDT FRI APR 18 2014

KSZ040-057-103>105-MOZ028-029-037-043-181800-
...KANSAS CITY METROPOLITAN AREA...

CITY           SKY/WX    TMP DP  RH WIND       PRES   REMARKS
K.C. INTL      SUNNY     58  36  43 VRB6      30.30F
K.C. DOWNTOWN  SUNNY     60  39  45 VRB5      30.30F
LEES SUMMIT    SUNNY     58  40  51 S7        30.31F
OLATHE - IXD   SUNNY     59  39  47 S5        30.30F
OLATHE - OJC   SUNNY     58  40  51 SE7       30.29F
LAWRENCE       SUNNY     59  40  49 S8        30.30F

$$

MOZ001>008-011>017-020>025-030>033-038>040-044>046-053-054-181800-
...NORTHERN AND CENTRAL MISSOURI...

CITY           SKY/WX    TMP DP  RH WIND       PRES   REMARKS
ST. JOSEPH     SUNNY     57  36  45 VRB6      30.31F
MOSBY          FAIR      55  39  54 SE7       30.32S
WHITEMAN AFB   SUNNY     58  41  53 VRB2      30.31F
CLINTON        SUNNY     61  46  59 N3        30.32F
SEDALIA        SUNNY     59  44  57 E7        30.33F
WARSAW         NOT AVBL
MARSHALL         N/A     55  43  62 E5        30.35S
CHILLICOTHE      N/A     56  38  50 SE6       30.34F
MOBERLY        SUNNY     61  37  41 SE3       30.35S
KIRKSVILLE     SUNNY     56  36  47 VRB3      30.34F

$$

MOZ041-047>049-056>058-063>065-088>090-097-181800-
...EASTERN AND SOUTHERN MISSOURI...

CITY           SKY/WX    TMP DP  RH WIND       PRES   REMARKS
ST. LOUIS INTL MOSUNNY   64  41  42 VRB3      30.33S
SPIRIT OF STL  SUNNY     61  42  49 CALM      30.32F
COLUMBIA       SUNNY     61  42  49 CALM      30.32F
JEFFERSON CITY SUNNY     60  41  49 W5        30.32F
MEXICO         SUNNY     57  43  58 N5        30.34S
HANNIBAL       SUNNY     63  32  31 N5        30.34F
ROLLA          SUNNY     62  42  47 CALM      30.29F
LEBANON        SUNNY     66  39  37 SE3       30.30F
OSAGE BEACH    SUNNY     63  39  42 NE8       30.32F
SPRINGFIELD    SUNNY     66  40  38 VRB5      30.28S
BRANSON        MOSUNNY   64  39  39 S6        30.28F
NEVADA         SUNNY     61  45  55 E6        30.31F
JOPLIN         SUNNY     64  42  44 VRB5      30.29F
WEST PLAINS    SUNNY     67  40  37 N3        30.27F

$$

IAZ060-094-KSZ022-034>040-054-083-096-NEZ052-066-093-181800-
...KANSAS...SOUTHEAST NEBRASKA AND IOWA...

CITY           SKY/WX    TMP DP  RH WIND       PRES   REMARKS
TOPEKA         SUNNY     59  39  47 SE8       30.29F
MANHATTAN      SUNNY     61  38  42 VRB7      30.26F
EMPORIA        SUNNY     60  40  47 SE8       30.27F
CHANUTE        SUNNY     62  42  47 VRB6      30.29F
WICHITA        MOSUNNY   61  42  49 SE10      30.25F
OMAHA          SUNNY     57  33  40 SE20      30.26F
LINCOLN        SUNNY     62  35  36 S17       30.23F HAZE
FALLS CITY     SUNNY     59  37  44 SE10      30.27F
LAMONI         SUNNY     55  36  48 SE8       30.31F
DES MOINES     MOSUNNY   55  36  48 S8        30.32F

$$




USA.gov is the U.S. government's official web portal to all federal, state and local government web resources and services.